Location: Selby
(38.0566°N, 122.2439°W)
Time: 04:54:15
(UTC+00:00)

IRS-1D - Pass Details

Date: 22 May 2024
Orbit: 739 x 813 km, 98.8° (Epoch: 13 June)

Event Time Altitude Azimuth Distance (km) Brightness Sun altitude
Rises 12:07:19 0° 10° (N) 3,344 7.5 -8.5°
Reaches altitude 10° 12:09:41 10° 7° (N) 2,407 6.7 -8.1°
Maximum altitude 12:14:58 67° 286° (WNW) 878 3.7 -7.3°
Drops below altitude 10° 12:20:10 10° 205° (SSW) 2,369 5.5 -6.4°
Enters shadow 12:22:15 - 203° (SSW) 3,195 6.2 -6.0°
